Weather History for Monett, MO

Change the Weather History Date:

Tuesday, July 23, 2013

  Actual Average (KJLN) Record (KJLN)
Temperature  
Mean Temperature 80 °F 81 °F  
Max Temperature 91 °F 91 °F 105 °F (2011)
Min Temperature 69 °F 70 °F 57 °F (1970)
Degree Days  
Heating Degree Days 0 0  
Month to date heating degree days 0  
Since 1 June heating degree days 5  
Since 1 July heating degree days 0  
Cooling Degree Days 15 16  
Month to date cooling degree days 347  
Year to date cooling degree days 845  
Since 1 June cooling degree days 665  
Growing Degree Days 30 (Base 50)    
Moisture  
Dew Point 71 °F    
Average Humidity 74    
Maximum Humidity 100    
Minimum Humidity 52    
Precipitation  
Precipitation 0.51 in 0.11 in 3.61 in (1956)
Month to date precipitation 2.98  
Year to date precipitation 26.79  
Sea Level Pressure  
Sea Level Pressure 29.89 in    
Wind  
Wind Speed 8 mph (SSW)    
Max Wind Speed 17 mph    
Max Gust Speed 39 mph    
Visibility 10 miles    
Events Rain , Thunderstorm    
T = Trace of Precipitation, MM = Missing Value Source: NWS Daily Summary

Daily Weather History Graph

Daily Weather History Graph

Search for Another Location

Airport:

Trip Planner

Search our weather history database for the weather conditions in past years. The results will help you decide how hot, cold, wet, or windy it might be!

Date:

Astronomy

Jul. 23, 2013 Rise Set
Actual Time 6:14 AM CDT 8:30 PM CDT
Civil Twilight 5:45 AM CDT 8:59 PM CDT
Nautical Twilight 5:09 AM CDT 9:35 PM CDT
Astronomical Twilight 4:29 AM CDT 10:14 PM CDT
Moon 9:02 PM CDT 7:20 AM CDT
Length of Visible Light 15h 14m
Length of Day
14h 15m
Full, 99% of the Moon is Illuminated
Jul 23
Full
Jul 29
Last Quarter
Aug 6
New
Aug 14
First Quarter
Aug 20
Full

Hourly Weather History & Observations

Time (CDT) Temp. Heat Index Dew Point Humidity Pressure Visibility Wind Dir Wind Speed Gust Speed Precip Events Conditions
12:15 AM 75.2 °F - 68.0 °F 78% 29.91 in 10.0 mi South 5.8 mph - N/A   Clear
12:35 AM 75.2 °F - 68.0 °F 78% 29.91 in 10.0 mi South 5.8 mph - N/A   Clear
12:55 AM 75.2 °F - 68.0 °F 78% 29.91 in 10.0 mi South 5.8 mph - N/A   Clear
1:15 AM 75.2 °F - 68.0 °F 78% 29.91 in 10.0 mi South 5.8 mph - N/A   Clear
1:35 AM 73.4 °F - 68.0 °F 83% 29.91 in 10.0 mi South 6.9 mph - N/A   Clear
1:55 AM 75.2 °F - 68.0 °F 78% 29.91 in 10.0 mi South 8.1 mph - N/A   Clear
2:15 AM 73.4 °F - 69.8 °F 88% 29.91 in 10.0 mi SSW 8.1 mph - N/A   Clear
2:35 AM 73.4 °F - 69.8 °F 88% 29.90 in 10.0 mi SSW 8.1 mph - N/A   Clear
2:55 AM 73.4 °F - 69.8 °F 88% 29.90 in 10.0 mi South 6.9 mph - N/A   Clear
3:15 AM 73.4 °F - 69.8 °F 88% 29.90 in 10.0 mi SSW 5.8 mph - N/A Thunderstorm Scattered Clouds
3:35 AM 73.4 °F - 69.8 °F 88% 29.90 in 10.0 mi WSW 8.1 mph - N/A Rain , Thunderstorm Light Thunderstorms and Rain
3:55 AM 75.2 °F - 60.8 °F 61% 29.94 in 3.0 mi SW 15.0 mph 39.1 mph 0.28 in Rain , Thunderstorm Heavy Thunderstorms and Rain
4:15 AM 73.4 °F - 62.6 °F 69% 29.90 in 10.0 mi NE 9.2 mph 16.1 mph N/A Thunderstorm Thunderstorm
4:35 AM 73.4 °F - 64.4 °F 73% 29.90 in 10.0 mi Calm Calm - N/A Thunderstorm Mostly Cloudy
4:55 AM 73.4 °F - 68.0 °F 83% 29.91 in 10.0 mi SW 3.5 mph - N/A Thunderstorm Thunderstorm
5:15 AM 73.4 °F - 68.0 °F 83% 29.90 in 10.0 mi SSE 4.6 mph - N/A Thunderstorm Clear
5:35 AM 73.4 °F - 69.8 °F 88% 29.90 in 10.0 mi SSE 5.8 mph - N/A   Clear
5:55 AM 71.6 °F - 69.8 °F 94% 29.90 in 10.0 mi SSE 5.8 mph - N/A   Clear
6:15 AM 71.6 °F - 69.8 °F 94% 29.91 in 10.0 mi SSE 5.8 mph - N/A   Clear
6:35 AM 71.6 °F - 69.8 °F 94% 29.91 in 10.0 mi South 5.8 mph - N/A   Clear
6:55 AM 71.6 °F - 69.8 °F 94% 29.91 in 10.0 mi South 5.8 mph - N/A   Clear
7:15 AM 73.4 °F - 71.6 °F 94% 29.91 in 10.0 mi SSW 5.8 mph - N/A   Clear
7:35 AM 75.2 °F - 71.6 °F 89% 29.91 in 10.0 mi South 5.8 mph - N/A   Clear
7:55 AM 77.0 °F - 71.6 °F 83% 29.92 in 10.0 mi South 5.8 mph - N/A   Clear
8:15 AM 77.0 °F - 71.6 °F 83% 29.92 in 10.0 mi SSW 6.9 mph - N/A   Clear
8:35 AM 78.8 °F - 71.6 °F 78% 29.92 in 10.0 mi SW 8.1 mph - N/A   Clear
8:55 AM 78.8 °F - 71.6 °F 78% 29.92 in 10.0 mi SW 9.2 mph - N/A   Clear
9:15 AM 80.6 °F 84.6 °F 71.6 °F 74% 29.93 in 10.0 mi WSW 10.4 mph - N/A   Clear
9:35 AM 80.6 °F 84.6 °F 71.6 °F 74% 29.93 in 10.0 mi SW 10.4 mph - N/A   Clear
9:55 AM 82.4 °F 88.2 °F 73.4 °F 74% 29.93 in 10.0 mi SW 10.4 mph - N/A   Clear
10:15 AM 84.2 °F 90.9 °F 73.4 °F 70% 29.92 in 10.0 mi SW 10.4 mph - N/A   Clear
10:35 AM 86.0 °F 93.4 °F 73.4 °F 66% 29.92 in 10.0 mi WSW 10.4 mph - N/A   Clear
10:55 AM 86.0 °F 93.4 °F 73.4 °F 66% 29.92 in 10.0 mi WSW 10.4 mph - N/A   Clear
11:15 AM 87.8 °F 95.6 °F 73.4 °F 62% 29.92 in 10.0 mi SW 11.5 mph - N/A   Clear
11:35 AM 87.8 °F 95.6 °F 73.4 °F 62% 29.92 in 10.0 mi WSW 11.5 mph - N/A   Clear
11:55 AM 87.8 °F 95.6 °F 73.4 °F 62% 29.93 in 10.0 mi WSW 11.5 mph 16.1 mph N/A   Scattered Clouds
12:15 PM 87.8 °F 95.6 °F 73.4 °F 62% 29.91 in 10.0 mi SW 15.0 mph - N/A   Scattered Clouds
12:35 PM 87.8 °F 95.6 °F 73.4 °F 62% 29.91 in 10.0 mi West 15.0 mph 18.4 mph N/A   Clear
12:55 PM 89.6 °F 98.2 °F 73.4 °F 59% 29.91 in 10.0 mi West 15.0 mph 20.7 mph N/A   Clear
1:15 PM 89.6 °F 98.2 °F 73.4 °F 59% 29.90 in 10.0 mi WSW 11.5 mph - N/A   Clear
1:35 PM 89.6 °F 98.2 °F 73.4 °F 59% 29.90 in 10.0 mi WSW 11.5 mph - N/A   Clear
1:55 PM 89.6 °F 98.2 °F 73.4 °F 59% 29.90 in 10.0 mi WNW 10.4 mph - N/A   Clear
2:15 PM 89.6 °F 98.2 °F 73.4 °F 59% 29.90 in 10.0 mi WNW 8.1 mph - N/A   Clear
2:35 PM 89.6 °F 98.2 °F 73.4 °F 59% 29.89 in 10.0 mi West 4.6 mph - N/A   Clear
3:15 PM 91.4 °F 100.1 °F 73.4 °F 55% 29.87 in 10.0 mi West 6.9 mph - N/A   Clear
3:35 PM 91.4 °F 98.4 °F 71.6 °F 52% 29.87 in 10.0 mi West 10.4 mph - N/A   Clear
4:15 PM 91.4 °F 98.4 °F 71.6 °F 52% 29.86 in 10.0 mi West 10.4 mph - N/A   Clear
4:35 PM 91.4 °F 100.1 °F 73.4 °F 55% 29.86 in 10.0 mi WSW 9.2 mph - N/A   Clear
4:55 PM 91.4 °F 100.1 °F 73.4 °F 55% 29.84 in 10.0 mi West 9.2 mph - N/A   Clear
5:15 PM 91.4 °F 100.1 °F 73.4 °F 55% 29.83 in 10.0 mi West 10.4 mph - N/A   Clear
5:35 PM 91.4 °F 100.1 °F 73.4 °F 55% 29.83 in 10.0 mi WSW 9.2 mph - N/A   Clear
5:55 PM 91.4 °F 100.1 °F 73.4 °F 55% 29.83 in 10.0 mi WSW 8.1 mph - N/A   Clear
6:15 PM 91.4 °F 100.1 °F 73.4 °F 55% 29.83 in 10.0 mi West 9.2 mph - N/A   Clear
6:35 PM 91.4 °F 100.1 °F 73.4 °F 55% 29.84 in 10.0 mi West 4.6 mph - N/A   Clear
6:55 PM 89.6 °F 98.2 °F 73.4 °F 59% 29.84 in 10.0 mi WSW 3.5 mph - N/A   Clear
7:15 PM 89.6 °F 99.8 °F 75.2 °F 62% 29.84 in 10.0 mi Calm Calm - N/A   Clear
7:35 PM 89.6 °F 98.2 °F 73.4 °F 59% 29.83 in 10.0 mi Calm Calm - N/A   Clear
7:55 PM 87.8 °F 99.7 °F 77.0 °F 70% 29.83 in 10.0 mi Calm Calm - N/A   Scattered Clouds
8:15 PM 86.0 °F 96.9 °F 77.0 °F 74% 29.85 in 7.0 mi NNW 10.4 mph - 0.01 in Rain , Thunderstorm Thunderstorms and Rain
8:35 PM 78.8 °F - 73.4 °F 83% 29.85 in 4.0 mi SE 8.1 mph - 0.07 in Rain , Thunderstorm Rain
8:55 PM 71.6 °F - 64.4 °F 78% 29.86 in 5.0 mi East 17.3 mph 23.0 mph 0.16 in Rain , Thunderstorm Thunderstorms and Rain
9:15 PM 71.6 °F - 68.0 °F 88% 29.87 in 7.0 mi SE 15.0 mph 23.0 mph 0.04 in Rain , Thunderstorm Light Thunderstorms and Rain
9:35 PM 69.8 °F - 68.0 °F 94% 29.88 in 10.0 mi ESE 10.4 mph 19.6 mph 0.04 in Thunderstorm Scattered Clouds
9:55 PM 69.8 °F - 68.0 °F 94% 29.86 in 10.0 mi ESE 9.2 mph - 0.04 in   Clear
10:15 PM 69.8 °F - 68.0 °F 94% 29.87 in 10.0 mi SE 6.9 mph - N/A   Clear
10:35 PM 69.8 °F - 68.0 °F 94% 29.87 in 7.0 mi SE 9.2 mph - N/A Rain Light Rain
10:55 PM 69.8 °F - 69.8 °F 100% 29.88 in 10.0 mi SE 13.8 mph 18.4 mph 0.01 in Rain Rain
11:15 PM 69.8 °F - 68.0 °F 94% 29.91 in 10.0 mi SSW 6.9 mph - N/A Rain , Thunderstorm Light Thunderstorms and Rain
11:35 PM 69.8 °F - 68.0 °F 94% 29.90 in 10.0 mi SSE 9.2 mph - N/A Rain Light Rain
11:55 PM 69.8 °F - 68.0 °F 94% 29.88 in 10.0 mi SE 12.7 mph - 0.02 in Rain Rain